Location: Nashville
(36.1660°N, 86.7840°W)
Time: 04:06:56
(UTC-05:00)

Tiros 1 - Pass Details

Date: 01 February 2022
Orbit: 630 x 663 km, 48.4° (Epoch: 29 May)

Event Time Altitude Azimuth Distance (km) Brightness Sun altitude
Rises 18:07:36 0° 209° (SSW) 2,960 11.2 -11.2°
Reaches altitude 10° 18:10:04 10° 200° (SSW) 2,057 10.2 -11.7°
Maximum altitude 18:14:23 35° 135° (SE) 1,057 8.0 -12.5°
Enters shadow 18:17:07 19° 82° (E) 1,542 8.4 -13.1°
